OBJECT Q, 61908

Orbit data source: Space-Track

You're viewing an Uncataloged Satellite

Recently launched and/or uncataloged satellites may have evolving metadata. Metadata may include but not limited to: Owner, Maufacturer, Bus, Motor, and Mission.

OBJECT Q, 61908 is a Chinese satellite in SSO that was launched on Mon, 11 Nov 2024 UTC via a LIJIAN-1 launch vehicle from the Jiuquan Satellite Launch Center, China (JSC). Unknown objects in Earth's orbit typically refer to objects detected orbiting the Earth but have not yet been identified or cataloged. These objects could be anything from previously untracked satellites, spent rocket stages, debris from satellite collisions, or even natural meteoroids temporarily captured by Earth's gravity.

Loading next visibility...
Identifier
61908, 2024-205Q
Orbit
SSO
Last TLE update
9 hours ago
Origin
Flag of CNSQU/STARV (CN / PRC)
Manufacturer
STARV/SQU
Mission
Operational Commercial Imaging
Bus & Motor
Unknown
Mass
~100 kg wet, ~100 kg dry
Launch date (UTC)
2024-11-11 (8 months ago)
Launch vehicle
LIJIAN-1
Launch site
Jiuquan Satellite Launch Center, China (JSC)
Object type
Unknown
Shape & HBR
Box + 2 Pan, 1 m
Radar Cross Section
0.195 m², Medium (>0.1 m² and < 1m²)

Expand to show TLE details & history

TLE from 9 hours ago
0 OBJECT Q
1 61908U 24205Q   25188.89871703  .00004917  00000-0  25615-3 0  9997
2 61908  97.4527 263.0316 0014191 169.1138 191.0405 15.16372148 36137
Epoch: 2025-07-07T21:34Z
TLE epoch observation values (Epoch: 2025-07-07T21:34:09.151Z)
Latitude
-0.00001°
Longitude
13.39203°
Altitude
529.506 km
Speed
7.593 km/s
True Right ascension
17h 32m 07s
True Declination
0° 00' 00"
Sunlit
Object was in full shadow at epoch
Visualization orbit readout
Latitude
-80.28987°
Longitude
144.27417°
Altitude
545.924 km
Speed
7.587 km/s
Apparent Right ascension
05h 58m 36s
Apparent Declination
-63° 19' 55"
Sunlit
Object is in daylight
Visualization observer readout
Local Sidereal Time
18:44:12
Azimuth
167.59° S
Elevation
-65.624°
Doppler factor
1
Orbital elements
Apogee altitude
523.569 km
Perigee altitude
504.008 km
Semi-major axis
6,891.926 km
Eccentricity
0.00142
Inclination
97.4527°
RAAN
263.0316°
Arg. of periapsis
169.1138°
True anomaly
Unknown
Mean anomaly
191.0405°
Eccentric anomaly
Unknown
Mean motion
3.79343 °/min
Orbital period
94.9 mins
BSTAR
0.00025615
Loading maneuver chart data...
Loading SW <> Apogee altitude chart data...
Loading historical data...
Loading historical data...
Loading historical data...
Loading historical data...
Loading historical data...
Loading historical data...
Loading historical data...

OBJECT Q Visibility forecast

Observer location: undefined°, undefined°

Span
Click to sort rows by Start time (UTC) header in descending order
Start Az.
Max El. time (UTC)
Max El. Az.
Max El.
End time (UTC)
End Az.
5 mins2025-07-08 17:08:46.907Z41.347° NE2025-07-08 17:11:46.907Z100.389° ESE22.824°2025-07-08 17:13:46.907Z142.674° SSE
5 mins2025-07-09 05:22:46.907Z196.12° SSW2025-07-09 05:24:46.907Z246.974° WSW34.915°2025-07-09 05:27:46.907Z329.722° NNW
|